User: anonymous
Location: Churchill
(58.7670°N, 94.1670°W)
Time: 00:00:33
(UTC-05:00)
Language:

Cosmos 1315 Rocket - Orbit

View from above orbital plane
View from above orbital plane
View from above satellite
View from above satellite

Ground track
Ground track

The orbit data is extracted from the following two-line orbital elements,

1 12904U 81103B   14210.10633253  .00001546  00000-0  11362-3 0  5482
2 12904 081.1774 037.7362 0028738 289.8210 069.9914 15.02573884334340
Epoch (UTC): 29 July 2014 02:33:07
Eccentricity: 0.0028738
inclination: 81.1774°
perigee height: 539 km
apogee height: 579 km
right ascension of ascending node: 37.7362°
argument of perigee: 289.8210°
revolutions per day: 15.02573884
mean anomaly at epoch: 69.9914°
orbit number at epoch: 33434

The dashed part of the orbit path shows where the satellite is in the earth's shadow,  

DLR